Temperature
9 9 9 8 8 8 7 7 7 6 6 6 6 6 6 5 5 5 5 5 5 5 5 4 4 4 4 3 3 3 2 2 2 2 2 2 2 2 2 2 2 3 3
8 8 8 7 7 7 7 7 6 6 6 6 6 6 5 5 5 5 5 5 4 4 4 4 3 3 3 2 2 2 1 1 1 1 1 1 1 1 1 2 2 2 3
8 7 7 7 7 7 6 6 6 6 6 6 6 5 5 5 5 5 4 4 4 3 3 3 2 2 2 1 1 1 1 0 -0 -0 -0 -0 0 1 1 2 2 2 3
7 7 7 6 6 6 6 6 6 6 6 5 5 5 5 4 4 4 4 3 3 3 2 1 1 1 1 1 1 0 0 -0 -0 -0 -0 -0 0 1 1 1 2 2 2
7 6 6 6 6 6 6 6 5 5 5 5 5 4 4 3 3 3 2 2 2 2 1 1 1 1 1 1 0 0 0 -0 -0 -0 -0 -0 0 0 1 1 1 1 2
6 6 6 6 6 6 5 5 5 4 4 4 3 3 2 2 2 1 1 1 1 1 0 1 1 1 1 0 0 0 0 -0 -0 -0 -0 -0 -0 0 0 0 1 1 1
5 5 5 5 5 5 5 4 4 3 3 3 2 2 1 1 0 0 0 0 0 0 0 0 0 0 0 0 0 0 -0 -0 -0 -0 -0 -0 -0 0 0 0 0 0 1
5 5 5 5 5 4 4 3 3 3 2 2 1 1 1 0 0 -0 -0 0 -0 -0 0 0 0 0 -0 -0 -0 -0 -0 -0 -0 -0 -0 0 0 0 0 0 0 1 1
5 5 5 4 4 4 3 3 2 2 1 1 1 0 0 0 -0 -0 -1 -0 -0 -0 -0 -0 -0 -0 -0 -0 -0 -0 -0 -0 -0 -0 0 0 0 0 0 1 1 1 1
4 4 4 4 3 3 2 2 1 1 1 0 0 0 0 0 -0 -0 -1 -1 -0 -0 -0 -0 0 -0 -0 0 0 -0 -0 -0 0 0 0 0 1 1 1 1 1 1 1
4 4 3 3 3 2 2 1 1 0 0 0 0 0 0 -0 -0 -0 -0 -1 -1 -0 -0 -0 0 0 0 0 0 1 1 0 0 0 1 1 1 0 0 0 0 0 0
3 3 3 3 2 2 1 1 0 0 0 0 -0 -0 -0 -0 -0 -0 -0 -0 -0 -0 -0 0 0 0 0 1 1 1 1 1 1 1 0 0 0 0 -0 -1 -1 -1 -1
3 3 3 2 2 1 1 1 0 0 -0 -0 -1 -1 -1 -1 -1 -0 -0 -0 -0 -0 0 0 0 0 0 1 1 1 1 1 1 0 0 0 -0 -0 -1 -1 -1 -1 -1
3 3 3 2 2 1 1 0 0 -0 -1 -1 -1 -1 -1 -1 -1 -1 -1 -0 -0 -0 0 0 0 0 0 0 0 0 0 0 0 0 0 0 -0 -0 -1 -1 -1 -1 -1
4 4 3 2 2 1 1 0 -0 -0 -1 -1 -1 -1 -1 -1 -1 -1 -1 -1 -1 -0 0 0 0 0 0 0 0 0 0 0 0 0 0 0 0 -0 -0 -1 -1 -1 -1
4 3 3 2 2 1 1 0 -0 -0 -1 -1 -1 -1 -1 -1 -1 -1 -1 -1 -1 -0 -0 0 0 0 0 0 0 0 0 0 0 0 0 0 0 0 -0 -1 -1 -1 -1
3 3 3 2 2 1 1 1 0 -0 -1 -1 -1 -1 -1 -1 -1 -1 -1 -1 -1 -0 -0 -0 -0 0 0 -0 -0 0 0 0 0 1 1 1 0 0 -0 -1 -1 -1 -1
3 3 3 2 2 1 1 1 0 0 -0 -1 -1 -1 -1 -1 -1 -1 -1 -1 -1 -1 -1 -1 -0 -0 -0 -0 -0 0 0 0 0 1 1 1 0 0 -0 -1 -1 -1 -1
3 3 3 3 2 2 1 1 0 0 -0 -0 -1 -1 -1 -1 -1 -1 -1 -1 -1 -1 -1 -1 -0 -0 -0 0 0 0 0 0 1 1 1 1 1 1 0 -0 -1 -1 -1
3 3 3 3 3 2 2 1 1 0 -0 -0 -1 -1 -1 -1 -1 -1 -1 -1 -1 -1 -1 -1 -1 -0 -0 0 0 0 0 1 1 1 1 1 1 1 1 0 0 -0 -1
4 4 4 3 3 3 2 2 1 1 0 -0 -1 -1 -1 -1 -1 -1 -1 -1 -1 -1 -1 -1 -1 -0 -0 -0 0 0 0 1 1 1 1 2 2 2 1 1 1 1 1
5 4 4 4 3 3 2 2 1 1 0 0 -0 -1 -1 -1 -1 -1 -1 -1 -1 -1 -1 -1 -1 -0 -0 -0 -0 0 0 1 1 1 1 2 2 2 2 2 2 2 2
5 5 4 4 4 3 3 2 2 1 1 0 0 -0 -1 -1 -1 -1 -1 -1 -1 -1 -1 -1 -1 -0 -0 -0 -0 0 0 1 1 1 2 2 2 3 3 3 3 3 3
5 5 4 4 3 3 3 2 2 1 1 0 0 -0 -1 -1 -1 -1 -1 -1 -1 -0 -0 -0 -0 -0 -0 -0 -0 0 0 1 1 1 2 2 2 3 3 3 3 3 3
5 4 4 3 3 3 2 2 1 1 1 0 0 -0 -0 -1 -1 -1 -1 -1 -1 -0 -0 -0 -0 -0 -0 -0 0 0 0 1 1 1 2 2 3 3 3 3 3 4 4
4 4 4 3 3 2 2 2 1 1 1 0 -0 -0 -1 -1 -1 -1 -1 -1 -1 -0 -0 -0 0 0 0 0 0 0 1 1 1 2 2 2 3 3 3 3 4 4 4
Wind_Speed
6 6 7 5 5 4 4 5 4 3 2 3 3 3 4 5 6 6 7 8 8 8 8 8 8 7 6 6 7 7 8 9 13 11 9 9 11 12 12 16 19 18 19
6 6 5 4 3 2 4 4 3 1 2 3 4 5 6 6 6 6 7 8 7 7 8 8 8 9 8 7 7 8 8 8 11 14 11 10 12 12 12 12 13 16 14
7 6 4 3 3 3 4 3 1 1 3 4 5 6 6 6 6 7 8 9 9 9 10 10 10 10 9 8 8 8 8 10 9 12 13 11 11 12 12 13 13 10 12
6 6 5 4 3 3 2 2 2 3 4 4 5 6 7 9 11 12 12 10 10 10 10 11 11 10 9 8 9 8 9 9 9 10 11 11 10 11 10 9 9 7 8
6 6 4 2 1 2 3 3 4 5 7 7 7 8 8 8 9 10 10 11 11 11 11 11 11 14 15 12 11 9 9 9 9 9 11 11 10 9 9 8 10 9 9
7 5 2 1 3 4 4 5 6 7 7 7 7 8 8 6 6 9 9 10 11 12 12 10 12 13 14 15 18 19 16 12 10 10 11 12 13 12 10 10 9 10 8
3 2 2 3 4 5 6 7 7 6 7 7 6 6 6 3 3 5 9 11 12 11 10 11 12 14 15 12 14 17 15 17 18 15 14 15 14 12 11 12 11 11 11
1 1 3 4 4 5 6 7 6 6 6 6 5 6 5 2 2 6 11 11 11 10 11 11 12 13 14 14 14 13 12 12 14 12 11 11 11 9 10 12 12 11 9
3 4 5 5 5 7 8 7 7 5 5 6 5 6 6 3 3 6 9 11 10 11 12 13 13 14 15 16 14 13 13 11 12 10 9 10 12 13 12 9 8 7 5
5 6 6 5 5 7 7 7 6 5 5 6 6 6 6 5 4 5 10 10 11 12 12 12 13 14 15 16 12 11 11 10 7 7 7 7 7 8 9 6 5 4 3
6 6 6 5 4 7 6 4 4 5 4 5 6 6 6 7 8 9 13 10 11 12 11 10 10 15 16 15 12 8 9 8 6 6 5 5 5 4 5 5 6 4 3
5 5 5 6 7 6 4 3 4 5 5 6 7 8 7 8 10 13 16 15 14 12 10 10 11 17 16 13 9 8 8 5 3 3 3 4 4 4 4 5 6 6 5
4 4 5 8 7 6 5 5 5 5 6 7 7 8 9 9 10 14 16 16 16 11 10 15 16 15 13 9 11 12 8 5 4 4 4 4 4 4 3 3 4 4 5
3 2 5 7 6 6 5 6 5 7 7 7 7 8 8 8 9 11 11 11 12 11 10 12 13 12 9 8 8 7 6 5 4 4 4 3 3 3 3 3 4 4 4
2 3 6 6 6 5 4 4 5 6 5 5 6 7 7 8 11 14 10 9 9 11 10 7 6 7 8 7 6 6 6 6 5 4 4 4 4 3 3 4 4 4 5
6 6 6 6 5 4 3 2 2 2 3 1 3 6 7 8 13 16 17 15 14 16 9 7 7 7 7 7 7 6 6 6 6 5 5 4 4 4 5 5 6 6 7
7 6 5 5 5 4 4 4 2 2 5 3 2 8 10 12 14 16 17 15 13 14 8 8 8 8 8 7 6 5 5 5 5 5 5 5 5 5 5 6 7 7 8
6 5 4 4 4 4 4 4 4 4 4 3 2 6 11 12 13 15 16 13 10 10 9 9 9 9 8 7 6 5 5 5 5 6 6 6 5 5 6 7 7 8 9
7 5 4 4 4 4 4 4 5 5 6 6 6 7 11 11 11 13 13 9 8 9 9 9 9 9 9 8 7 6 6 6 6 6 6 6 5 5 6 7 8 10 9
3 2 4 4 5 5 5 5 5 5 5 5 7 8 8 9 9 10 9 9 8 8 9 9 9 9 9 9 8 7 7 7 7 7 7 6 5 4 6 7 6 7 7
2 3 1 5 7 6 5 6 6 6 6 5 5 6 7 7 7 8 8 8 8 8 8 8 9 9 9 8 8 9 10 8 8 8 7 6 5 4 5 5 5 6 7
4 5 5 6 6 6 6 6 6 6 6 6 5 5 5 6 6 6 7 7 7 7 7 7 7 8 8 8 8 9 9 10 10 10 9 7 6 5 5 5 5 5 6
5 6 6 6 6 6 7 7 7 7 7 7 7 6 6 6 5 5 6 6 6 6 8 8 7 7 9 9 8 7 8 8 9 10 9 8 6 6 6 6 7 7 6
8 8 8 8 8 8 8 8 8 8 8 8 7 7 6 5 4 5 5 5 5 6 8 8 7 9 12 12 11 10 11 12 12 11 11 9 6 5 5 6 7 7 7
9 9 9 9 9 8 8 8 8 8 8 8 8 8 7 7 6 6 5 4 5 6 9 10 9 11 13 14 14 14 17 18 17 15 12 7 7 6 6 7 6 6 6
10 10 9 8 8 8 8 8 8 8 8 8 8 8 8 8 8 7 7 6 6 7 9 12 13 14 15 14 16 18 18 18 18 19 13 7 5 6 6 5 7 6 7
Wind_Direction
113 102 104 107 121 148 129 127 124 122 144 244 251 259 266 267 264 261 266 275 278 279 283 287 289 289 288 287 285 284 284 284 288 291 290 292 290 289 287 285 286 281 276
103 95 97 105 110 118 108 102 115 144 270 293 298 290 283 283 280 281 292 306 315 318 318 316 310 306 302 299 294 293 292 293 292 295 296 296 291 291 287 283 285 280 274
119 113 115 118 107 76 82 84 59 359 298 299 300 300 305 318 334 349 358 360 353 340 329 320 312 307 301 301 301 295 293 291 289 290 290 289 288 286 286 287 282 279 283
111 111 96 73 73 73 74 61 7 341 321 325 337 347 2 29 37 25 10 352 341 330 318 310 305 302 300 298 295 286 283 281 280 280 284 287 287 286 286 287 292 292 293
73 86 91 97 109 75 50 31 23 13 4 12 11 11 17 50 38 22 359 344 333 318 309 305 305 304 297 288 284 281 283 281 281 281 283 286 287 290 291 296 296 297 290
47 60 63 25 50 51 42 48 39 24 16 16 18 15 18 37 46 23 357 335 318 308 307 310 308 300 303 300 292 287 279 277 279 281 284 284 286 287 291 291 291 290 286
42 39 45 37 57 48 42 45 31 19 21 16 12 14 19 74 45 347 332 321 309 308 312 313 313 312 312 307 307 306 294 282 275 274 277 279 283 288 293 292 287 283 276
139 77 66 65 66 58 52 41 31 22 19 359 6 11 352 2 245 303 319 317 313 313 313 310 308 309 309 311 307 298 290 284 277 276 273 280 287 292 289 285 282 277 270
117 89 67 55 54 52 48 33 31 14 10 352 12 350 337 347 245 298 324 325 319 320 317 313 310 308 307 307 304 296 291 286 282 277 277 281 284 286 287 287 281 275 271
94 80 67 56 55 65 55 33 15 360 9 354 350 339 345 0 2 342 336 335 330 326 318 315 313 313 311 309 305 296 291 294 306 313 306 298 295 301 313 316 321 310 298
85 80 66 40 63 83 68 38 8 358 356 349 348 349 4 10 9 6 348 343 333 324 321 323 325 326 323 320 313 297 291 300 308 307 307 312 320 337 2 13 12 2 350
84 82 78 59 45 60 60 43 24 3 1 10 4 1 3 3 4 355 343 334 329 327 325 329 332 333 334 341 350 351 341 333 325 329 337 344 351 11 29 29 25 23 19
93 88 91 92 73 43 34 38 32 20 18 15 7 1 357 354 353 350 339 332 332 334 331 332 333 337 344 356 6 7 7 7 3 5 7 8 9 19 26 22 18 14 19
83 98 113 105 92 65 39 39 36 23 19 17 10 359 352 350 353 348 340 337 339 342 337 332 334 343 354 355 359 2 4 6 7 11 4 359 1 20 32 21 16 4 11
77 70 94 87 82 75 61 39 36 56 40 18 11 355 352 351 342 333 339 344 345 343 336 342 354 358 3 2 3 9 9 10 13 5 3 9 18 29 35 30 30 26 26
47 54 66 70 67 56 53 118 134 95 170 201 346 347 358 354 342 346 349 350 354 352 356 357 359 1 359 0 5 10 9 5 360 359 4 9 19 34 49 50 44 40 41
56 44 54 57 58 47 26 22 51 185 219 225 10 2 5 2 2 358 353 353 6 5 7 360 359 358 358 5 9 9 7 357 351 356 360 5 21 50 62 62 57 53 52
72 65 56 69 61 52 37 24 28 35 46 42 37 18 11 10 11 6 358 3 10 9 4 358 356 356 359 3 3 7 5 359 358 358 0 9 25 54 70 69 67 66 65
43 36 24 57 69 66 54 38 37 38 38 30 25 26 18 10 15 14 9 13 5 2 358 356 354 356 356 358 0 6 10 9 6 2 2 11 28 56 75 80 82 81 78
102 38 346 37 56 57 56 47 41 40 41 35 32 23 13 14 16 11 10 5 3 360 356 353 352 354 357 1 6 10 14 13 7 3 360 8 26 56 81 90 94 95 94
73 97 177 44 45 37 46 50 50 44 39 42 48 44 22 23 17 8 4 1 359 356 353 351 352 356 0 4 9 12 13 11 6 1 358 3 25 55 80 97 104 103 108
20 43 45 50 57 39 38 50 50 48 43 41 53 67 60 39 23 10 3 358 354 351 349 348 351 355 358 5 11 14 13 9 1 358 358 2 20 45 61 72 79 88 98
23 43 48 43 50 61 51 51 48 45 44 41 43 48 51 44 31 14 3 356 352 352 354 355 356 358 359 3 11 18 12 359 348 350 354 360 16 32 46 58 67 72 72
41 40 45 41 41 46 46 46 45 44 43 41 38 43 51 55 41 19 5 2 357 358 0 1 359 358 3 11 13 15 8 356 350 349 348 357 14 32 45 52 59 68 67
40 40 46 46 39 41 45 48 46 45 44 41 38 37 40 42 40 34 22 14 5 8 11 10 9 8 7 14 13 4 357 359 2 357 349 350 7 28 45 51 52 54 62
41 40 46 52 47 41 41 44 47 48 46 44 40 38 36 37 36 35 30 26 22 16 15 13 16 23 15 9 3 0 0 359 357 354 351 345 8 31 38 47 54 52 62
Height
1497 1500 1502 1504 1506 1508 1509 1510 1511 1512 1512 1513 1513 1513 1512 1511 1510 1509 1506 1505 1503 1500 1498 1496 1494 1491 1489 1486 1484 1481 1478 1474 1467 1463 1463 1460 1458 1455 1452 1450 1448 1446 1444
1499 1502 1504 1506 1508 1509 1510 1511 1511 1512 1512 1513 1512 1511 1510 1509 1507 1505 1503 1500 1498 1495 1493 1490 1487 1485 1482 1479 1476 1473 1470 1467 1463 1457 1455 1453 1450 1447 1444 1442 1440 1438 1437
1501 1503 1505 1507 1509 1510 1510 1511 1511 1511 1511 1511 1510 1509 1508 1505 1503 1500 1498 1495 1492 1489 1486 1484 1481 1478 1475 1472 1469 1466 1463 1460 1457 1452 1448 1446 1443 1440 1438 1435 1433 1432 1430
1503 1505 1507 1508 1509 1510 1511 1511 1510 1510 1510 1509 1508 1506 1504 1501 1498 1495 1493 1490 1487 1483 1480 1478 1475 1472 1469 1466 1463 1459 1456 1453 1450 1446 1442 1440 1437 1434 1432 1429 1426 1425 1423
1503 1505 1507 1509 1510 1511 1511 1510 1509 1509 1508 1506 1504 1502 1500 1497 1493 1491 1488 1485 1481 1478 1475 1473 1470 1467 1464 1461 1457 1453 1450 1447 1444 1440 1437 1434 1431 1429 1426 1423 1420 1417 1415
1503 1506 1508 1510 1510 1510 1510 1509 1508 1507 1505 1503 1501 1499 1497 1494 1491 1488 1485 1481 1477 1474 1471 1468 1465 1462 1458 1455 1451 1447 1444 1440 1437 1434 1431 1428 1425 1422 1419 1416 1413 1410 1407
1504 1506 1508 1509 1509 1509 1509 1507 1506 1504 1503 1501 1499 1496 1494 1491 1489 1486 1482 1478 1474 1472 1468 1464 1460 1456 1452 1448 1443 1440 1437 1434 1432 1429 1425 1422 1419 1416 1413 1409 1406 1403 1400
1505 1506 1507 1508 1508 1508 1507 1505 1504 1503 1501 1499 1497 1494 1492 1489 1487 1484 1480 1476 1472 1469 1465 1460 1455 1450 1446 1441 1436 1432 1429 1426 1424 1422 1419 1416 1413 1410 1406 1403 1399 1395 1393
1505 1506 1507 1507 1508 1507 1505 1504 1503 1501 1500 1498 1496 1493 1491 1488 1485 1482 1478 1473 1469 1465 1461 1456 1451 1445 1440 1435 1430 1425 1422 1419 1418 1416 1413 1411 1407 1404 1400 1397 1393 1391 1389
1506 1507 1507 1508 1507 1506 1504 1503 1502 1501 1499 1497 1495 1492 1490 1487 1484 1480 1476 1471 1466 1462 1457 1452 1446 1441 1435 1430 1425 1421 1417 1415 1414 1412 1410 1407 1404 1401 1398 1394 1391 1389 1387
1508 1508 1508 1508 1507 1505 1504 1502 1502 1500 1499 1497 1495 1492 1489 1486 1483 1479 1475 1469 1464 1459 1454 1448 1443 1438 1432 1427 1422 1419 1416 1414 1412 1410 1408 1406 1403 1401 1397 1394 1391 1388 1386
1509 1509 1508 1508 1507 1506 1504 1503 1502 1500 1499 1496 1494 1491 1488 1485 1482 1477 1473 1469 1464 1458 1453 1447 1442 1436 1431 1427 1423 1419 1416 1414 1412 1411 1409 1407 1404 1401 1398 1395 1391 1388 1386
1510 1510 1509 1508 1507 1506 1505 1504 1502 1500 1498 1496 1493 1490 1487 1484 1480 1476 1472 1467 1463 1458 1452 1447 1442 1437 1433 1429 1425 1422 1419 1417 1415 1413 1411 1409 1406 1403 1400 1396 1393 1390 1387
1511 1511 1510 1509 1508 1506 1506 1504 1503 1501 1499 1496 1493 1490 1487 1483 1479 1474 1470 1466 1462 1457 1452 1448 1443 1439 1435 1432 1428 1425 1423 1420 1418 1416 1414 1411 1408 1405 1402 1399 1396 1393 1390
1512 1512 1511 1509 1508 1507 1506 1505 1503 1501 1499 1496 1493 1490 1487 1483 1479 1475 1471 1466 1462 1458 1453 1449 1445 1442 1438 1434 1431 1428 1426 1423 1421 1419 1417 1414 1411 1408 1405 1402 1400 1397 1394
1513 1513 1512 1511 1510 1508 1507 1505 1503 1502 1499 1496 1494 1491 1488 1484 1480 1476 1472 1468 1463 1459 1455 1451 1448 1444 1441 1437 1434 1431 1429 1427 1425 1423 1420 1417 1415 1412 1409 1406 1404 1401 1399
1514 1514 1513 1512 1511 1509 1508 1506 1504 1502 1500 1497 1495 1492 1488 1485 1480 1476 1472 1468 1465 1461 1457 1454 1450 1447 1444 1441 1438 1435 1433 1431 1429 1427 1424 1421 1419 1416 1414 1411 1409 1406 1404
1516 1515 1514 1513 1512 1510 1509 1507 1505 1503 1501 1499 1496 1493 1489 1485 1481 1477 1473 1470 1466 1462 1459 1456 1453 1450 1447 1444 1442 1439 1437 1435 1433 1431 1428 1426 1423 1421 1419 1417 1414 1412 1410
1518 1517 1516 1515 1513 1512 1510 1508 1506 1504 1502 1500 1498 1495 1491 1487 1483 1479 1475 1471 1468 1465 1462 1459 1456 1454 1451 1448 1446 1444 1442 1440 1437 1435 1433 1430 1429 1427 1425 1423 1421 1419 1417
1519 1518 1517 1516 1515 1513 1511 1509 1508 1505 1503 1501 1499 1496 1492 1488 1484 1481 1477 1474 1471 1468 1465 1462 1460 1457 1454 1452 1450 1448 1446 1444 1442 1440 1438 1436 1434 1432 1431 1430 1428 1427 1425
1522 1520 1518 1517 1516 1514 1512 1511 1509 1507 1505 1503 1501 1498 1495 1491 1487 1484 1481 1477 1474 1471 1468 1466 1463 1460 1458 1456 1453 1452 1450 1448 1446 1445 1443 1441 1440 1438 1437 1436 1435 1434 1433
1523 1521 1520 1519 1517 1516 1514 1512 1511 1509 1507 1505 1503 1500 1498 1494 1491 1487 1484 1481 1478 1475 1472 1469 1467 1464 1462 1460 1458 1456 1454 1453 1451 1449 1448 1447 1445 1444 1443 1442 1442 1441 1440
1524 1522 1521 1520 1518 1517 1515 1514 1513 1511 1509 1508 1506 1503 1501 1498 1494 1491 1488 1485 1481 1478 1476 1473 1470 1468 1466 1464 1462 1460 1459 1457 1456 1454 1453 1452 1451 1450 1449 1449 1448 1447 1447
1525 1523 1522 1521 1520 1519 1517 1516 1515 1513 1512 1510 1508 1506 1504 1501 1498 1495 1492 1489 1485 1482 1479 1477 1474 1472 1470 1468 1466 1465 1463 1462 1461 1459 1458 1457 1457 1456 1455 1455 1454 1454 1453
1527 1525 1524 1523 1522 1521 1520 1518 1517 1515 1514 1512 1511 1509 1507 1504 1502 1499 1496 1493 1490 1487 1484 1481 1478 1476 1474 1473 1471 1469 1468 1467 1466 1464 1463 1462 1462 1462 1461 1461 1460 1460 1459
1530 1528 1527 1526 1524 1523 1522 1521 1519 1518 1516 1515 1513 1511 1509 1507 1505 1502 1499 1497 1494 1491 1488 1486 1483 1481 1479 1477 1476 1474 1473 1471 1470 1469 1468 1468 1467 1467 1467 1466 1466 1465 1465